This is the latest recevied weather packets stored in our database for station/object IW2HNF-3. If no packets are shown the sender has not sent any weather packets the latest 10 day(s).
| Time | Temp. | Humidity | Pressure | Rain* | Wind** | Luminosity | Snow |
|---|---|---|---|---|---|---|---|
| 1777706439 | 16.67° C | 47% | 1025.2 hPa | 0 mm | - | - | - |
| 1777705863 | 16.67° C | 52% | 1025.2 hPa | 0 mm | - | - | - |
| 1777705238 | 16.11° C | 54% | 1025.3 hPa | 0 mm | - | - | - |
| 1777704663 | 15.56° C | 56% | 1025.3 hPa | 0 mm | - | - | - |
| 1777704038 | 15° C | 56% | 1025.3 hPa | 0 mm | - | - | - |
| 1777703463 | 14.44° C | 59% | 1025.2 hPa | 0 mm | - | - | - |
| 1777702839 | 13.89° C | 59% | 1025.2 hPa | 0 mm | - | - | - |
| 1777702262 | 13.33° C | 60% | 1025.2 hPa | 0 mm | - | - | - |
| 1777702071 | 13.33° C | 62% | 1025.2 hPa | 0 mm | - | - | - |
| 1777701062 | 12.78° C | 64% | 1025.2 hPa | 0 mm | - | - | - |
| 1777700439 | 12.22° C | 66% | 1025.3 hPa | 0 mm | - | - | - |
| 1777699862 | 12.22° C | 67% | 1025.2 hPa | 0 mm | - | - | - |
| 1777699238 | 11.67° C | 68% | 1025.2 hPa | 0 mm | - | - | - |
| 1777698662 | 11.11° C | 70% | 1025.1 hPa | 0 mm | - | - | - |
| 1777698039 | 11.11° C | 71% | 1025.1 hPa | 0 mm | - | - | - |
| 1777697462 | 10.56° C | 73% | 1025.1 hPa | 0 mm | - | - | - |
| 1777696838 | 10.56° C | 74% | 1025.1 hPa | 0 mm | - | - | - |
| 1777696263 | 10.56° C | 74% | 1025.1 hPa | 0 mm | - | - | - |
| 1777695639 | 10.56° C | 73% | 1025 hPa | 0 mm | - | - | - |
| 1777695063 | 10.56° C | 73% | 1025 hPa | 0 mm | - | - | - |
| 1777693862 | 10.56° C | 73% | 1025 hPa | 0 mm | - | - | - |
| 1777692663 | 10.56° C | 70% | 1024.9 hPa | 0 mm | - | - | - |
| 1777691463 | 10.56° C | 69% | 1025 hPa | 0 mm | - | - | - |
| 1777690841 | 11.11° C | 68% | 1024.9 hPa | 0 mm | - | - | - |
| 1777690263 | 11.11° C | 68% | 1024.9 hPa | 0 mm | - | - | - |
* Rain latest hour (hover to see other rain measurements)
** Current wind speed in m/s (hover to see current wind gust speed)